Flag for Sweden

Past Weather in 58°11'06"N, 12°42'42"E, Sweden — Yesterday and Last 2 Weeks

Now
59 °F

Partly sunny.


Feels Like: 57 °F
Forecast: 66 / 45 °F
Wind: 9 mph from Northeast

Location: Gothenburg / Landvetter

Current Time: May 25, 2020 at 2:32:50 pm

Latest Report: May 25, 2020 at 1:50 pm


Visibility: N/A

Pressure: 30.36 "Hg

Humidity: 59%

Dew Point: 45 °F

Location of 58°11'06"N, 12°42'42"ELocation

Past Weather in 58°11'06"N, 12°42'42"E — Graph

°F

58°11'06"N, 12°42'42"E Temperature Yesterday

Maximum temperature yesterday: 50 °F (at 9:50 am)
Minimum temperature yesterday: 45 °F (at 12:20 am)
Average temperature yesterday: 48 °F

High & Low Weather Summary for the Past Weeks

 TemperatureHumidityPressure
High66 °F (May 22, 2:20 pm)100% (May 19, 6:20 am)30.33 "Hg (May 19, 6:20 am)
Low28 °F (May 14, 4:20 am)25% (May 11, 2:50 pm)29.65 "Hg (May 10, 1:20 pm)
Average46 °F68%29.92 "Hg
* Reported May 10 1:20 pm — May 25 1:20 pm, 58°11'06"N, 12°42'42"E. Weather by CustomWeather, © 2020

Note: Actual official high and low records may vary slightly from our data, if they occured in-between our weather recording intervals... More about our weather records

58°11'06"N, 12°42'42"E Weather History for the Previous 24 Hours

Scroll right to see more
 ConditionsComfort  
Time TempWeatherWind HumidityBarometerVisibility
1:20 pm
Mon, May 25
59 °FScattered clouds.10 mph59%30.33 "HgN/A
12:50 pm59 °FScattered clouds.9 mph63%30.33 "HgN/A
12:20 pm57 °FScattered clouds.9 mph63%30.33 "HgN/A
11:50 am59 °FScattered clouds.9 mph63%30.30 "HgN/A
11:20 am55 °FBroken clouds.9 mph72%30.30 "HgN/A
10:50 am55 °FBroken clouds.10 mph77%30.30 "HgN/A
10:20 am55 °FScattered clouds.9 mph77%30.27 "HgN/A
9:50 am55 °FScattered clouds.10 mph77%30.27 "HgN/A
9:20 am52 °FLow clouds.10 mph88%30.27 "HgN/A
8:50 am52 °FMostly cloudy.9 mph88%30.24 "HgN/A
8:20 am50 °FMostly cloudy.9 mph94%30.21 "HgN/A
7:50 am48 °FBroken clouds.9 mph94%30.21 "HgN/A
7:20 am48 °FCloudy.9 mph94%30.18 "HgN/A
6:50 am48 °FBroken clouds.7 mph94%30.18 "HgN/A
6:20 am48 °FLow clouds.8 mph94%30.15 "HgN/A
5:50 am48 °FMostly cloudy.8 mph94%30.15 "Hg6 mi
5:20 am46 °FFog.7 mph100%30.12 "Hg3 mi
4:50 am46 °FFog.7 mph100%30.09 "Hg4 mi
4:20 am46 °FFog.5 mph100%30.09 "Hg3 mi
3:50 am46 °FFog.5 mph100%30.09 "Hg2 mi
3:20 am46 °FFog.5 mph100%30.07 "Hg1 mi
2:50 am48 °FFog.3 mph94%30.04 "Hg1 mi
2:20 am48 °FFog.3 mph94%30.04 "Hg3 mi
1:50 am46 °FFog.3 mph100%30.01 "Hg3 mi
1:20 am46 °FFog.3 mph100%30.01 "Hg3 mi
12:50 am46 °FFog.5 mph100%30.01 "Hg3 mi
12:20 am46 °FFog.5 mph100%29.98 "Hg3 mi
11:50 pm
Sun, May 24
46 °FFog.5 mph100%29.98 "Hg3 mi
11:20 pm46 °FFog.6 mph100%29.98 "Hg3 mi
10:50 pm46 °FDrizzle. Fog.6 mph100%29.98 "Hg2 mi
10:20 pm46 °FDrizzle. Fog.6 mph100%29.98 "Hg2 mi
9:50 pm46 °FDrizzle. Fog.7 mph93%29.95 "Hg2 mi
9:20 pm46 °FDrizzle. Fog.8 mph93%29.95 "Hg2 mi
8:50 pm48 °FPartly sunny.8 mph94%29.95 "Hg5 mi
8:20 pm48 °FDrizzle. Mostly cloudy.12 mph87%29.95 "Hg4 mi
7:50 pm48 °FLight rain. Partly sunny.12 mph94%29.95 "Hg3 mi
7:20 pm48 °FSprinkles. Mostly cloudy.9 mph94%29.92 "Hg3 mi
6:50 pm48 °FMostly cloudy.14 mph87%29.95 "HgN/A
6:20 pm48 °FMostly cloudy.15 mph94%29.95 "HgN/A
5:50 pm48 °FPartly sunny.15 mph94%29.95 "HgN/A
5:20 pm48 °FSprinkles. Partly sunny.13 mph94%29.92 "HgN/A
4:50 pm48 °FLight rain. Mostly cloudy.14 mph94%29.95 "HgN/A
4:20 pm48 °FCloudy.13 mph94%29.95 "HgN/A
3:50 pm48 °FRain showers. Fog.14 mph94%29.95 "Hg2 mi
3:20 pm48 °FSprinkles. Partly sunny.12 mph94%29.92 "HgN/A
2:50 pm50 °FSprinkles. Partly sunny.15 mph88%29.92 "HgN/A
2:20 pm48 °FPartly sunny.16 mph94%29.92 "Hg6 mi
Weather by CustomWeather, © 2020

See weather overview

Advertising